This demonstration page uses our WeatherBlox Daily Observations layout. Learn more.

Left ArrowRight Arrow

53.62937, 11.41316

Hourly Observations for April 27, 2022

Temp ( °F °C ) Dew Point ( °F °C ) Humidity (%) Winds ( mph kmh ) Pressure ( in mb ) Visibility ( mi km ) Precip ( " mm )
12:20 am 00:20 Mostly Clear 39 4 32 0 75 75 VRB 1 2 30.15 1021 30 48 N/A
12:50 am 00:50 Mostly Clear 37 3 32 0 81 81 Calm 30.15 1021 30 48 N/A
1:20 am 01:20 Mostly Clear 39 4 32 0 75 75 VRB 1 2 30.15 1021 30 48 N/A
1:50 am 01:50 Mostly Clear 36 2 32 0 87 87 VRB 1 2 30.18 1022 30 48 N/A
2:20 am 02:20 Mostly Clear 36 2 32 0 87 87 SW 2 4 30.18 1022 30 48 N/A
2:50 am 02:50 Mostly Clear 36 2 32 0 87 87 WSW 1 2 30.18 1022 30 48 N/A
3:20 am 03:20 Partly Cloudy 36 2 32 0 87 87 SW 2 4 30.18 1022 30 48 N/A
3:50 am 03:50 Mostly Clear 34 1 32 0 93 93 WSW 2 4 30.18 1022 30 48 N/A
4:20 am 04:20 Mostly Clear 36 2 34 1 93 93 SW 3 6 30.18 1022 30 48 N/A
4:50 am 04:50 Mostly Clear 36 2 34 1 93 93 VRB 2 4 30.18 1022 30 48 N/A
5:20 am 05:20 Mostly Clear 34 1 32 0 93 93 VRB 1 2 30.18 1022 30 48 N/A
5:50 am 05:50 Mostly Sunny 34 1 34 1 100 100 Calm 30.21 1023 0 1 N/A
6:20 am 06:20 Partly Cloudy with Patchy Fog 34 1 34 1 100 100 Calm 30.21 1023 6 9 N/A
6:50 am 06:50 Mostly Sunny 36 2 34 1 93 93 SW 3 6 30.21 1023 7 11 N/A
7:20 am 07:20 Mostly Sunny 39 4 37 3 93 93 WSW 3 6 30.21 1023 7 11 N/A
7:50 am 07:50 Mostly Sunny 43 6 39 4 87 87 VRB 1 2 30.24 1024 7 11 N/A
8:20 am 08:20 Mostly Sunny 43 6 39 4 87 87 WSW 3 6 30.24 1024 7 11 N/A
8:50 am 08:50 Mostly Sunny 45 7 41 5 87 87 NW 5 7 30.24 1024 7 11 N/A
9:20 am 09:20 Mostly Sunny 48 9 43 6 82 82 WNW 3 6 30.24 1024 7 11 N/A
9:50 am 09:50 Mostly Sunny 48 9 41 5 76 76 W 5 7 30.27 1025 7 11 N/A
10:20 am 10:20 Mostly Sunny 50 10 41 5 71 71 WNW 5 7 30.27 1025 7 11 N/A
10:50 am 10:50 Mostly Sunny 54 12 41 5 63 63 VRB 5 7 30.27 1025 7 11 N/A
11:20 am 11:20 Mostly Sunny 55 13 41 5 59 59 VRB 2 4 30.27 1025 30 48 N/A
11:50 am 11:50 Mostly Sunny 55 13 39 4 55 55 WNW 6 9 30.27 1025 7 11 N/A
12:20 pm 12:20 Mostly Sunny 55 13 39 4 55 55 VRB 6 9 30.27 1025 30 48 N/A
12:50 pm 12:50 Partly Cloudy 55 13 41 5 59 59 W 7 11 30.27 1025 30 48 N/A
1:20 pm 13:20 Mostly Sunny 55 13 39 4 55 55 WNW 7 11 30.27 1025 30 48 N/A
1:50 pm 13:50 Partly Cloudy 57 14 39 4 51 51 WNW 7 11 30.27 1025 30 48 N/A
2:20 pm 14:20 Mostly Sunny 57 14 39 4 51 51 W 8 13 30.27 1025 30 48 N/A
2:50 pm 14:50 Mostly Sunny 57 14 37 3 48 48 W 7 11 30.27 1025 30 48 N/A
3:20 pm 15:20 Partly Cloudy 57 14 37 3 48 48 W 7 11 30.27 1025 30 48 N/A
3:50 pm 15:50 Mostly Sunny 57 14 37 3 48 48 W 6 9 30.27 1025 7 11 N/A
4:20 pm 16:20 Mostly Sunny 59 15 37 3 45 45 NW 5 7 30.27 1025 7 11 N/A
4:50 pm 16:50 Mostly Sunny 61 16 39 4 45 45 W 8 13 30.24 1024 7 11 N/A
5:20 pm 17:20 Mostly Sunny 59 15 37 3 45 45 NNW 7 11 30.27 1025 30 48 N/A
5:50 pm 17:50 Mostly Sunny 57 14 41 5 55 55 NW 8 13 30.27 1025 30 48 N/A
6:20 pm 18:20 Mostly Sunny 55 13 43 6 63 63 NE 10 17 30.27 1025 30 48 N/A
6:50 pm 18:50 Mostly Sunny 54 12 41 5 63 63 ENE 10 17 30.27 1025 30 48 N/A
7:20 pm 19:20 Partly Cloudy 54 12 41 5 63 63 ENE 8 13 30.27 1025 30 48 N/A
7:50 pm 19:50 Mostly Cloudy 54 12 41 5 63 63 NE 7 11 30.27 1025 30 48 N/A
8:20 pm 20:20 Mostly Cloudy 52 11 41 5 67 67 ENE 6 9 30.30 1026 30 48 N/A
8:50 pm 20:50 Cloudy 52 11 39 4 62 62 ENE 2 4 30.30 1026 30 48 N/A
9:20 pm 21:20 Cloudy 52 11 39 4 62 62 Calm 30.30 1026 30 48 N/A
9:50 pm 21:50 Cloudy 52 11 41 5 67 67 VRB 1 2 30.30 1026 30 48 N/A
10:20 pm 22:20 Mostly Cloudy 48 9 37 3 66 66 WNW 9 15 30.33 1027 30 48 N/A
10:50 pm 22:50 Partly Cloudy 46 8 37 3 71 71 WNW 7 11 30.33 1027 30 48 N/A
11:20 pm 23:20 Mostly Clear 45 7 37 3 76 76 WNW 6 9 30.33 1027 30 48 N/A
11:50 pm 23:50 Mostly Clear 45 7 37 3 76 76 WNW 5 7 30.33 1027 30 48 N/A

Powered by AerisWeather